weather.gov     
National Weather Service

Terminal Aerodrome Forecast
NWS Homepage
This page is being discontinued on March 12, 2014.
The same data is available at this site. Please update your bookmarks.
Thank you, and we apologize for the inconvenience.
Please send an email to SR-SRH.Webmaster@noaa.gov with any concerns.


Current Version
Previous Version:    01  02  03  04  05  06  07  08  09  10  11  12  13  14  15  16  17  18  19  20  21  22  23  
[Printable]
976
FTUS42 KGSP 312322
TAFGSP
TAF
KGSP 312322Z 0100/0124 23005KT P6SM BKN130
     FM010800 21003KT P6SM BKN110
     FM011600 20007KT P6SM BKN050
     FM012000 20009KT P6SM OVC030
     FM012300 16005KT P6SM OVC020=




976
FTUS42 KGSP 312322
TAFGSP
TAF
KGSP 312322Z 0100/0124 23005KT P6SM BKN130
     FM010800 21003KT P6SM BKN110
     FM011600 20007KT P6SM BKN050
     FM012000 20009KT P6SM OVC030
     FM012300 16005KT P6SM OVC020=


U.S. Dept. of Commerce
NOAA National Weather Service
1325 East West Highway
Silver Spring, MD 20910
E-mail: w-nws.webmaster@noaa.gov
Page last modified: May 16, 2007
NATIONAL WEATHER SERVICE: for Safety, for Work, for Fun - FOR LIFE